Regional Weather Roundup
Issued by NWS

Home | Current Version | Previous Version | Graphics & Text | Print | Product List | Glossary On
Versions: 1 2 3 4 5 6 7 8 9 10 11 12 13 14 15 16 17 18 19 20 21 22 23 24 25 26 27 28 29 30 31 32 33 34 35 36 37 38 39 40 41 42 43 44 45 46 47 48 49 50
000
ASUS43 KLOT 300310
RWRIL

ILLINOIS REGIONAL WEATHER ROUNDUP
NATIONAL WEATHER SERVICE CHICAGO/ROMEOVILLE IL
900 PM CST THU JAN 29 2015

NOTE: "FAIR" INDICATES FEW OR NO CLOUDS BELOW 12,000 FEET WITH NO
SIGNIFICANT WEATHER AND/OR OBSTRUCTIONS TO VISIBILITY.

* THESE STATIONS ARE NOT UNDER NWS QUALITY CONTROL. THEY ALSO MAY NOT
  REPORT WEATHER SUCH AS PRECIPITATION OR FOG.

ILZ001-002-007-009-015-016-024-300400-
NORTHWEST ILLINOIS

CITY           SKY/WX    TMP DP  RH WIND       PRES   REMARKS
MOLINE         CLOUDY    32  21  64 NW17G26   30.36R WCI  21
STERLING*      CLOUDY    34  21  60 NW14G20   30.31R WCI  24
SAVANNA*       CLOUDY    32  20  62 NW13G23   30.33R WCI  23
$$

ILZ003-004-008-010-011-017-018-300400-
NORTH CENTRAL ILLINOIS

CITY           SKY/WX    TMP DP  RH WIND       PRES   REMARKS
ROCKFORD       CLOUDY    33  19  56 N16G23    30.29R WCI  23
FREEPORT*      CLOUDY    32  22  66 NW18G25   30.31R WCI  20
ROCHELLE*      CLOUDY    32  24  71 NW13      30.28R WCI  23
DE KALB*       CLOUDY    32  21  65 NW8       30.25R WCI  24
PERU*          CLOUDY    34  28  76 NW15      30.30R WCI  25
$$

ILZ005-006-012>014-019>023-300400-
NORTHEAST ILLINOIS

CITY           SKY/WX    TMP DP  RH WIND       PRES   REMARKS
CHICAGO-OHARE  CLOUDY    34  19  54 NW15      30.22R WCI  24
CHICAGO-MIDWAY CLOUDY    36  20  52 NW17      30.23R WCI  26
AURORA         CLOUDY    34  21  59 NW17G28   30.25R WCI  23
LANSING*       CLOUDY    35  21  58 NW10G17   30.22R WCI  27
JOLIET*        CLOUDY    34  21  60 NW5       30.25R WCI  30
WAUKEGAN       CLOUDY    33  18  53 NW13G25   30.21R WCI  24
DUPAGE AIRPORT CLOUDY    33  22  63 NW10      30.23R WCI  25
KANKAKEE*      CLOUDY    34  26  71 NW12      30.25R WCI  26
WHEELING       CLOUDY    34  18  52 NW20G28   30.24R WCI  23
MORRIS*        CLOUDY    34  27  74 NW9       30.26R WCI  27
ROMEOVILLE*    CLOUDY    34  20  57 NW12G17   30.24R WCI  25
NORTHERLY ISL    N/A     35  20  54 W12         N/A  WCI  27
$$

LMZ740>746-300400-
SOUTHERN LAKE MICHIGAN

STATION/POSITION SKY/WX   TEMP    WIND        PRES    VSBY  WAVE
                          AIR SEA DIR/SP/G                  HT/PER
                          (F)     (DEG/KT/KT) (MB)    (MI)  (FT/S)
WAUKEGAN HARBOR            35     330/ 14/ 21   N/A
HARRISON CRIB              35     310/ 18/ 22   N/A
BURNHAM HARBOR             35     360/  7/ 19   N/A
CALUMET HARBOR             35     290/ 11/ 15   N/A
MICHIGAN CITY              34     280/ 22/ 25   N/A
$$

ILZ025>027-034>036-040-047-049-050-058-095>099-300400-
WEST-CENTRAL ILLINOIS

CITY           SKY/WX    TMP DP  RH WIND       PRES   REMARKS
QUINCY         CLOUDY    33  23  66 N18       30.40S WCI  22
GALESBURG*     CLOUDY    32  25  74 NW20G25   30.35R WCI  20
MACOMB*        CLOUDY    33  26  74 NW13G20   30.40R WCI  24
JACKSONVILLE*  CLOUDY    36  26  68 NW20G26   30.38R WCI  25
PITTSFIELD*    CLOUDY    35  25  67 NW16G23   30.41R WCI  25
$$

ILZ028>032-037-038-041>044-048-051>054-059>061-300400-
CENTRAL ILLINOIS

CITY           SKY/WX    TMP DP  RH WIND       PRES   REMARKS
PONTIAC        CLOUDY    35  31  85 NW14G23   30.28R WCI  25
BLOOMINGTON    MOCLDY    33  28  82 NW20G25   30.30R WCI  21
DECATUR        CLOUDY    34  27  75 NW18G29   30.33R WCI  23
PEORIA         CLOUDY    35  24  64 NW14G21   30.34R WCI  26
LACON*         CLOUDY    33  25  72 NW13      30.32R WCI  24
LINCOLN*       CLOUDY    35  26  71 NW12G20   30.36R WCI  27
SPRINGFIELD    CLOUDY    35  26  69 NW17      30.36R WCI  25
TAYLORVILLE    CLOUDY    32  27  80 NW13      30.35R WCI  22
$$

ILZ033-039-045-046-055>057-062-063-300400-
EAST-CENTRAL ILLINOIS

CITY           SKY/WX    TMP DP  RH WIND       PRES   REMARKS
CHAMPAIGN      CLOUDY    34  29  82 W14       30.28R WCI  25
DANVILLE*      CLOUDY    33  29  83 NW14      30.23R WCI  24
RANTOUL*       CLOUDY    35  31  83 NW13      30.27R WCI  27
MATTOON        CLOUDY    34  29  82 NW17      30.30R WCI  23
PARIS*         CLOUDY    34  32  94 W12       30.28R WCI  25
$$

ILZ079-100>102-300400-
SOUTHWEST ILLINOIS

CITY           SKY/WX    TMP DP  RH WIND       PRES   REMARKS
ALTON          CLOUDY    36  27  69 NW16      30.39R WCI  26
BELLEVILLE     CLOUDY    36  27  69 NW20G32   30.39R WCI  26
CAHOKIA*       CLOUDY    37  28  70 NW14G22   30.41R WCI  28
SPARTA*        CLOUDY    37  27  69 NW20G29   30.39R WCI  26
$$

ILZ064>066-069>071-074>076-080>082-084>086-088>090-092>094-300400-
SOUTH-CENTRAL ILLINOIS

CITY           SKY/WX    TMP DP  RH WIND       PRES   REMARKS
CARBONDALE     CLOUDY    38  29  70 NW16      30.38R WCI  29
CAIRO*         CLOUDY    44  32  62 NW15      30.36S
EFFINGHAM*     CLOUDY    35  27  74 W16       30.35R WCI  25
MARION         CLOUDY    39  30  70 N13G21    30.39R WCI  32
MT. VERNON     CLOUDY    36  27  69 NW6       30.37R WCI  31
CENTRALIA*     CLOUDY    35  27  74 NW16G25   30.37R WCI  25
SALEM*         CLOUDY    37  31  79 NW16      30.37R WCI  27
METROPOLIS*    CLOUDY    42  33  71 NW10      30.34R
$$

ILZ067-068-072-073-078-083-087-091-300400-
SOUTHEAST ILLINOIS

CITY           SKY/WX    TMP DP  RH WIND       PRES   REMARKS
LAWRENCEVILLE  CLOUDY    36  32  85 NW15      30.31R WCI  27
FLORA*         CLOUDY    34  30  85 NW16G22   30.35R WCI  24
FAIRFIELD*     CLOUDY    36  31  81 NW7G17    30.35R WCI  31
HARRISBURG*    CLOUDY    38  30  74 NW14      30.37R WCI  29
ROBINSON*      CLOUDY    35  32  91 NW12      30.31R WCI  26
CARMI*         CLOUDY    39  33  80 NW14G22   30.35R WCI  30
$$

ABBREVIATIONS USED IN REMARKS
   TC - TEMPERATURE IN CELSIUS
  WCI - WIND CHILL INDEX
   HX - HEAT INDEX
  VSB - VISIBILITY
$$



USA.gov is the U.S. government's official web portal to all federal, state and local government web resources and services.